Dewpoint
21 11 8 11 9 8 9 10 11 15 28 31 32 34 36 40 40 41 42 42 43 45 48 52 55 58 58 57 55 54 52 50 49 46 46 46 45 44 37 36 37 37 38 39
17 15 18 24 21 18 19 18 22 26 29 31 32 35 37 38 40 41 42 42 43 45 47 49 54 57 57 56 56 53 50 45 44 46 47 47 46 41 36 35 37 37 38 37
16 18 24 24 24 22 23 21 22 24 28 29 30 31 36 39 41 42 42 42 43 45 46 48 52 54 53 51 50 50 46 44 44 45 43 41 41 40 37 35 34 35 36 35
24 25 22 22 24 23 20 24 28 27 25 21 24 19 34 38 40 40 40 41 42 40 41 42 43 45 45 40 40 40 40 39 38 40 39 40 37 35 38 34 34 36 38 37
23 23 22 21 23 26 25 28 26 22 21 21 24 22 27 36 38 39 40 40 39 38 36 34 34 34 35 37 38 39 38 37 37 39 37 35 35 36 36 36 38 38 38 38
25 27 25 24 26 26 29 27 27 28 25 18 22 20 24 33 36 38 39 39 38 37 37 37 38 38 37 37 39 39 36 35 35 35 35 35 34 33 34 35 36 36 37 36
23 24 25 26 25 26 27 26 23 21 20 17 26 23 22 29 34 37 37 38 38 39 38 39 38 38 38 38 38 35 33 33 34 34 34 34 34 34 32 31 31 33 31 31
17 18 21 25 24 23 24 25 20 14 18 20 25 23 23 28 32 36 37 38 39 39 40 40 39 37 35 35 34 33 33 30 30 29 26 23 21 18 18 22 24 25 28 30
21 20 24 25 25 25 21 19 26 24 23 21 23 25 27 30 30 35 36 37 38 39 39 39 38 36 34 33 34 32 23 19 19 21 21 23 24 24 24 26 27 27 33 36
24 18 23 25 26 26 23 25 18 21 14 16 19 23 23 29 29 33 35 36 38 37 38 38 36 38 38 36 30 24 18 17 20 22 24 24 26 27 27 27 27 29 33 36
23 22 22 25 23 22 23 20 23 23 21 7 7 14 27 29 30 31 34 36 36 37 37 35 35 36 38 30 22 20 19 20 20 22 25 27 27 28 28 28 29 30 33 35
28 25 23 21 25 28 24 21 19 5 9 20 19 12 28 30 29 33 32 34 36 36 34 33 31 28 25 21 19 20 20 19 20 22 24 26 27 29 28 29 29 31 31 32
27 25 21 19 20 23 23 25 23 23 25 19 15 7 30 32 30 31 32 34 35 34 32 29 22 19 19 20 21 21 20 18 19 19 21 24 27 29 29 29 31 31 32 31
29 25 20 15 14 21 21 26 24 20 14 16 21 17 21 28 30 32 33 34 33 32 31 28 20 17 19 20 21 21 21 21 20 19 20 24 28 29 30 31 31 32 34 34
27 21 24 26 26 24 19 23 23 19 19 16 17 19 20 24 30 32 34 33 32 31 30 28 22 16 18 20 21 20 20 21 22 21 21 24 29 30 30 31 31 32 34 35
30 23 25 25 28 26 22 21 23 25 24 21 23 23 26 31 33 33 33 33 32 31 30 28 23 16 17 20 21 19 19 20 21 22 23 25 29 30 30 30 31 32 33 34
27 25 20 13 24 21 14 17 21 23 25 25 21 23 32 31 32 33 34 33 32 33 31 27 24 18 14 18 19 17 17 19 20 21 22 25 28 29 29 30 29 31 32 33
24 19 17 13 15 4 11 26 24 22 23 25 27 27 31 32 34 34 34 34 34 33 31 28 24 20 14 15 16 17 16 17 18 19 21 24 27 28 29 29 28 31 31 29
27 22 16 12 14 12 10 18 25 24 17 28 27 29 33 35 35 35 35 35 35 34 33 28 24 20 12 11 15 15 15 17 19 21 22 23 26 27 28 28 29 29 27 27
28 23 16 18 8 2 8 20 33 28 21 27 32 32 33 35 32 29 36 36 35 34 31 25 22 11 7 10 14 16 19 21 20 21 23 24 26 28 28 28 28 27 25 19
30 26 20 16 14 15 18 28 30 16 13 30 34 34 34 33 33 34 35 35 35 30 19 16 11 10 13 17 21 21 21 20 21 24 26 26 27 27 28 28 26 23 20 22
22 21 20 20 17 10 24 30 24 25 31 31 35 35 35 35 34 33 33 29 25 19 16 15 16 17 20 22 22 20 20 23 25 26 27 27 28 28 27 26 24 20 21 21
22 26 21 21 17 23 26 31 32 33 31 32 35 36 36 36 34 33 28 21 18 16 16 17 18 20 20 20 22 20 22 27 27 28 27 28 29 28 26 25 22 20 21 20
31 29 26 26 26 27 29 31 32 32 33 34 36 36 38 37 35 31 21 18 17 16 17 19 18 16 17 22 23 25 28 28 28 28 28 29 28 27 25 24 21 20 21 20
30 31 30 29 30 30 30 33 34 34 37 38 39 40 39 38 34 25 20 18 18 24 31 20 17 18 20 24 25 28 28 28 28 28 26 26 27 28 27 23 21 21 20 21
33 29 27 24 26 28 28 29 33 35 36 39 40 39 37 33 26 21 19 24 34 35 22 19 20 22 23 26 27 27 27 29 29 27 26 26 27 27 29 30 25 22 23 21
Wind_Speed
1 10 11 6 3 4 7 5 7 4 4 9 10 10 10 8 10 9 9 11 13 12 8 12 15 18 21 20 18 15 13 13 14 12 7 2 2 4 6 8 9 10 9 10
8 10 2 7 6 8 6 8 6 7 6 9 10 12 9 9 5 4 11 12 14 16 13 14 17 20 21 22 18 15 16 16 14 8 1 2 3 4 6 7 8 9 8 7
9 4 4 6 9 13 8 9 6 7 10 10 9 6 5 7 8 9 9 11 13 18 20 17 17 15 14 14 13 14 14 12 3 3 5 6 6 5 2 4 4 4 3 1
8 2 6 7 5 4 6 5 17 16 3 5 2 4 1 2 6 8 9 10 14 17 16 15 13 14 16 12 9 11 10 8 8 6 6 7 5 4 3 2 1 5 8 10
1 6 4 6 1 2 5 13 14 5 6 5 2 2 3 7 10 12 11 9 11 13 17 18 19 18 15 13 10 11 13 11 10 11 11 11 11 6 2 3 7 8 9 9
5 3 3 3 4 8 16 10 7 5 3 3 3 4 7 14 20 17 12 10 13 14 13 13 11 12 12 11 11 14 17 16 16 17 16 15 13 10 10 11 11 11 13 14
4 2 0 2 7 6 5 7 3 2 3 6 1 4 8 20 15 22 22 18 16 13 11 9 11 9 9 14 15 17 20 18 15 14 13 11 9 9 9 10 11 15 15 15
6 2 2 4 2 4 3 5 6 7 6 4 2 7 4 4 15 20 21 18 14 13 11 9 7 10 13 16 18 18 18 17 13 12 12 10 10 7 6 8 10 12 14 14
5 2 2 4 2 2 3 4 3 7 2 1 3 4 8 1 14 15 17 17 18 15 11 10 11 12 14 16 15 18 18 16 12 10 8 6 4 5 6 9 11 12 13 12
6 5 1 2 3 10 2 8 3 1 4 6 3 6 10 9 20 17 18 19 16 12 12 13 12 12 12 14 13 13 13 13 10 8 5 4 5 6 10 12 14 15 14 9
4 3 4 2 0 6 4 3 6 5 2 3 3 6 5 12 19 23 23 17 17 16 17 15 12 12 13 14 14 13 11 8 8 5 4 6 7 10 10 12 13 14 13 8
2 5 4 2 0 1 2 4 5 4 4 1 2 7 2 8 11 13 13 12 14 17 17 15 15 15 14 14 11 11 8 6 5 3 4 5 7 8 9 11 12 11 11 7
8 1 5 2 1 0 3 3 5 7 4 6 4 4 1 4 6 11 16 14 16 19 17 15 15 14 14 12 9 8 6 4 2 1 2 4 6 7 9 11 11 10 8 8
3 4 5 14 4 3 6 7 8 5 4 5 10 8 5 7 9 11 12 15 19 19 18 16 15 14 12 11 9 6 5 3 2 2 2 4 6 7 8 10 11 9 8 9
2 5 3 2 0 2 3 8 13 13 8 9 6 11 9 12 17 15 12 16 19 19 16 15 16 16 15 12 9 7 4 3 4 3 5 6 6 8 8 10 11 10 9 7
2 6 4 6 1 2 5 8 10 13 8 16 11 19 12 3 8 15 19 21 21 19 17 16 17 18 13 11 10 8 5 5 3 7 8 7 7 8 9 11 12 11 10 8
4 10 7 5 1 1 8 19 19 10 8 12 18 15 8 9 15 21 21 22 21 20 19 18 19 19 18 14 11 9 6 3 6 8 10 9 8 10 11 12 13 12 11 9
7 7 2 3 3 9 6 3 3 17 12 18 9 7 8 6 6 10 17 23 23 20 18 17 17 16 15 12 9 7 5 6 7 10 11 10 10 11 10 12 12 11 10 10
3 6 3 4 6 8 6 4 6 8 8 15 19 11 4 4 2 9 18 19 21 20 17 15 16 14 10 12 9 7 5 7 7 10 11 12 11 12 11 12 11 11 10 7
7 9 2 3 4 5 3 2 4 4 10 4 13 10 10 10 8 12 15 21 18 13 11 11 10 8 10 9 7 5 4 5 9 11 12 12 12 12 12 11 10 8 6 5
2 1 8 7 7 9 9 1 3 2 5 2 10 12 16 13 12 3 5 12 16 14 13 12 11 9 9 7 7 3 3 9 8 8 11 13 13 12 12 10 7 7 7 4
6 7 5 4 3 7 6 5 5 3 3 4 10 15 21 20 7 6 6 9 14 16 16 15 15 10 8 7 3 3 8 7 7 10 13 15 13 12 12 10 6 3 4 5
5 6 1 11 5 4 10 7 6 2 5 6 7 11 15 12 10 9 10 13 13 15 14 12 12 10 5 3 1 5 7 5 8 12 14 12 13 14 9 8 5 4 5 6
5 5 5 2 3 12 15 16 17 13 18 14 12 12 12 18 12 11 13 14 15 14 14 8 8 5 2 1 2 4 4 6 9 12 12 12 13 13 7 6 5 6 7 7
3 10 5 6 15 13 12 12 15 14 12 13 9 10 12 13 15 18 17 17 17 13 5 5 6 4 1 2 4 4 6 7 6 7 10 12 10 12 10 7 6 7 8 8
10 9 8 15 16 8 12 7 6 8 11 11 9 6 5 10 16 18 17 14 13 9 8 7 5 2 2 3 6 6 5 3 5 9 9 8 10 10 9 9 9 10 10 7
Wind_Direction
21 141 136 135 85 132 132 131 119 84 147 77 78 68 35 47 82 111 125 129 119 104 104 107 118 129 129 134 132 133 140 136 143 148 175 181 161 113 89 70 58 53 50 52
72 93 356 77 83 106 118 136 107 87 114 96 100 63 54 48 62 118 136 131 126 121 120 124 129 141 147 153 154 154 156 157 154 171 182 77 127 96 87 64 55 48 51 53
118 122 92 89 107 119 80 104 157 139 104 98 114 66 47 52 87 104 104 111 117 127 130 137 148 152 147 153 151 154 156 163 158 116 110 91 92 102 80 47 48 53 92 132
85 74 122 119 112 137 100 105 132 127 102 145 330 197 131 131 124 128 128 127 133 137 135 135 136 134 137 139 133 132 121 104 66 39 64 68 58 51 36 37 329 342 342 333
108 130 118 86 346 119 121 142 124 101 108 145 93 133 167 173 191 181 174 157 153 153 143 144 153 157 145 132 112 94 86 80 76 76 73 68 61 51 18 314 326 328 327 315
100 58 59 115 64 94 134 111 66 60 82 226 180 210 205 195 199 187 185 181 170 168 157 158 141 131 123 108 111 107 99 85 78 75 66 62 50 27 6 347 333 322 318 317
52 32 51 114 107 102 96 131 129 197 202 232 315 212 249 208 187 184 184 185 182 182 170 171 158 146 132 118 116 106 102 94 86 79 69 63 53 36 12 348 328 318 312 310
159 178 32 7 89 151 142 176 184 218 214 226 133 231 241 216 201 184 187 182 176 184 181 181 151 132 123 120 118 114 105 100 95 93 81 67 54 37 8 343 328 316 310 304
144 140 15 44 104 161 167 184 130 111 57 222 223 276 276 208 189 182 171 172 182 182 178 160 133 125 126 126 126 119 115 111 104 98 92 77 56 30 2 347 341 333 324 315
174 124 111 118 98 50 153 139 134 79 209 248 259 269 238 199 194 194 187 187 184 174 161 148 139 134 132 123 119 111 110 112 116 106 98 78 44 14 5 356 347 340 335 325
137 128 188 175 197 164 145 144 75 106 107 214 287 259 218 225 202 200 203 191 181 173 163 152 141 136 134 133 136 126 118 124 109 92 60 35 21 9 352 346 343 340 331 325
167 125 145 164 186 281 126 156 151 175 205 147 205 273 204 266 244 222 203 181 177 168 156 150 147 145 144 145 147 121 119 111 91 70 37 22 11 350 340 337 335 335 330 334
182 121 129 93 350 322 211 162 131 116 119 199 197 260 288 290 246 218 192 174 165 157 155 156 156 155 152 156 138 135 143 120 133 61 5 5 340 330 335 332 329 322 312 304
112 129 182 203 187 164 186 187 173 161 185 195 233 261 268 247 229 204 184 169 163 165 168 168 167 167 170 165 167 169 166 176 205 239 328 306 311 325 323 324 325 320 314 310
144 192 151 138 113 216 207 196 193 207 198 220 246 231 256 242 222 207 184 166 169 178 178 180 181 186 189 186 181 187 187 206 231 264 269 281 302 309 318 329 326 315 308 311
50 190 152 191 292 3 250 235 215 228 240 248 255 268 232 254 168 183 188 181 186 190 193 194 196 200 197 197 199 195 214 231 239 255 266 285 285 303 323 323 316 312 312 299
158 151 164 225 346 6 277 240 217 207 212 216 238 248 192 216 210 205 193 194 195 199 201 201 203 203 206 202 199 207 220 231 252 262 269 272 290 303 306 315 312 301 300 291
148 130 102 178 132 242 244 175 198 224 240 221 249 233 216 238 217 204 201 197 204 203 205 208 205 206 210 194 196 208 225 260 278 277 276 281 290 287 296 308 305 301 298 293
73 132 124 200 214 301 281 215 194 197 278 227 231 230 205 131 132 253 210 208 208 205 206 207 203 202 192 191 202 217 262 286 280 283 289 287 288 280 284 298 300 302 301 303
63 77 132 154 237 256 261 252 189 149 281 298 216 209 181 152 197 247 201 206 210 200 198 197 189 173 169 180 180 217 256 283 298 304 298 296 291 271 274 289 292 296 288 285
123 34 218 204 240 279 257 256 151 206 301 280 197 195 176 198 219 178 173 195 185 177 165 149 143 164 159 159 161 195 284 294 302 299 302 299 291 277 277 279 272 287 281 235
204 179 195 134 221 280 188 143 196 242 256 253 208 205 203 217 185 186 166 153 152 151 147 140 141 141 140 139 140 284 285 299 309 309 306 305 304 300 285 257 264 265 228 206
233 207 224 203 231 224 210 233 230 241 265 269 245 244 228 230 210 166 155 147 142 136 128 131 131 126 124 107 151 276 283 312 314 311 313 314 317 309 280 245 231 190 199 209
227 182 227 204 242 248 246 256 264 260 255 261 249 263 227 230 184 172 150 141 131 131 126 132 116 131 151 320 316 279 291 316 314 314 319 318 320 324 283 247 220 205 205 216
208 164 203 249 277 280 274 252 264 276 268 270 263 252 240 199 181 163 149 138 132 127 89 159 158 171 229 322 302 306 314 316 311 312 315 317 311 317 293 261 238 213 208 214
193 204 216 266 272 256 275 290 294 282 282 283 256 242 175 174 153 140 130 130 121 141 182 173 169 188 271 291 295 302 318 302 291 290 297 302 305 302 282 266 247 224 236 231